Regional Weather Roundup
Issued by NWS Upton, NY

Current Version | Previous Version | Text Only | Print | Product List | Glossary On
Versions: 1 2 3 4 5 6 7 8 9 10 11 12 13 14 15 16 17 18 19 20 21 22 23 24 25 26 27 28 29 30 31 32 33 34 35 36 37 38 39 40 41 42 43 44 45 46 47 48 49 50
000
ASUS41 KOKX 210705
RWROKX
REGIONAL WEATHER ROUNDUP
NATIONAL WEATHER SERVICE NEW YORK NY
300 AM EDT TUE OCT 21 2014

NOTE: "FAIR" INDICATES FEW OR NO CLOUDS BELOW 12,000 FEET WITH NO
SIGNIFICANT WEATHER AND/OR OBSTRUCTIONS TO VISIBILITY.

NYZ071-072-176-178-NJZ106-104-210800-
NEW YORK CITY METRO AREA


CITY           SKY/WX    TMP DP  RH WIND       PRES   REMARKS
CENTRAL PARK   MOCLDY    58  43  57 SW6       29.95F
LAGUARDIA APRT CLOUDY    57  44  62 S5        29.92F
KENNEDY INTL   CLOUDY    56  46  69 SW5       29.94F
NEWARK/LIBERTY CLOUDY    54  45  71 CALM      29.93F
BRNX BOT. GARD   N/A     54  43  66 SW6       29.95S
TETERBORO      MOCLDY    53  43  68 CALM      29.92F
$$

NYZ177-179-078>081-210800-
LONG ISLAND NEW YORK

CITY           SKY/WX    TMP DP  RH WIND       PRES   REMARKS
FARMINGDALE    MOCLDY    52  46  80 CALM      29.94F
ISLIP          MOCLDY    51  45  79 CALM      29.93F
SHIRLEY        MOCLDY    52  46  80 CALM      29.95F
WESTHAMPTON    CLOUDY    54  47  77 CALM      29.96F
MONTAUK POINT    N/A     62  51  67 S7        29.97F
$$

NYZ052-065-067-210800-
HUDSON VALLEY

CITY           SKY/WX    TMP DP  RH WIND       PRES   REMARKS
WHITE PLAINS   CLOUDY    49  43  80 CALM      29.93F
NEWBURGH       MOCLDY    52  43  71 CALM      29.93F
MONTGOMERY     CLOUDY    46  41  82 CALM      29.92S
POUGHKEEPSIE   CLOUDY    49  42  77 CALM      29.93R
ALBANY         LGT RAIN  49  43  80 S3        29.92S
$$

NJZ001-105-106-008-010-013-015-019>022-104-210800-
NEW JERSEY

CITY           SKY/WX    TMP DP  RH WIND       PRES   REMARKS
NEWARK/LIBERTY CLOUDY    54  45  71 CALM      29.93F
TETERBORO      MOCLDY    53  43  68 CALM      29.92F
CALDWELL       MOCLDY    47  42  83 CALM      29.93F
MORRISTOWN     MOCLDY    45  43  93 CALM      29.92F
SOMERVILLE     MOCLDY    46  42  86 NW5       29.91S
SUSSEX         LGT RAIN  49  44  83 CALM      29.91F
ANDOVER          N/A     51  44  77 CALM      29.91F
TRENTON        CLOUDY    51  44  77 CALM      29.91F
MILLVILLE      CLOUDY    51  48  89 CALM      29.92F
ATLANTIC CITY  MOCLDY    48  43  82 CALM      29.93F
WRIGHTSTOWN    CLOUDY    48  45  90 CALM      29.90F
TOMS RIVER     PTCLDY    45  39  81 CALM      29.93F
BELMAR         MOCLDY    52  43  71 S5        29.92F
$$

PAZ047>061-062-071-210800-
EASTERN PENNSYLVANIA

CITY           SKY/WX    TMP DP  RH WIND       PRES   REMARKS
PHILADELPHIA   CLOUDY    55  46  71 S3        29.92F
ALLENTOWN      LGT RAIN  51  48  89 NW3       29.91F
SCRANTON       CLOUDY    53  45  74 S5        29.87F
$$

CTZ002-004>006-009-010-012-RIZ004-006-007-MAZ004-011-015-210800-
SOUTHERN NEW ENGLAND
 IN CT

CITY           SKY/WX    TMP DP  RH WIND       PRES   REMARKS
BRADLEY INTL   CLOUDY    46  41  82 CALM      29.95F
HARTFORD       CLOUDY    47  44  90 MISG      29.95F
DANBURY        CLOUDY    44  29  55 CALM      29.94F
WTRBRY/OXFORD  CLOUDY    48  41  76 CALM      29.95S
BRIDGEPORT     MOCLDY    52  45  77 CALM      29.95F
MERIDEN        CLOUDY    44  41  89 NW3       29.95F
NEW HAVEN      CLOUDY    52  43  71 N6        29.94F
CHESTER        FAIR      45  43  93 CALM      29.96F
GROTON         MOCLDY    50  48  93 N6        29.95F
WILLIMANTIC    MOCLDY    41  38  89 CALM      29.98F

 IN RI

CITY           SKY/WX    TMP DP  RH WIND       PRES   REMARKS
PROVIDENCE     MOCLDY    46  42  86 CALM      29.98F
BLOCK ISLAND   CLOUDY    61  46  59 SW8       29.96F
WESTERLY       MOCLDY    60  51  72 SW8       29.96F

 IN MA

CITY           SKY/WX    TMP DP  RH WIND       PRES   REMARKS
BOSTON         CLOUDY    50  44  80 S3        29.99F
WORCESTER      CLOUDY    46  40  79 SW5       29.96F
WESTFIELD      CLOUDY    45  41  86 CALM      29.96F
PROVINCETOWN   CLOUDY    55  46  71 E5        30.01F
NANTUCKET      LGT RAIN  58  52  80 S6        30.02F
$$

ANZ330-335-338-340-345-350-353-355-210800-
COASTAL MARINE OBSERVATIONS


STATION/POSITION TIME  SKY/WX   TEMP    WIND        PRES    VSBY  WAVE
                                AIR SEA DIR/SP/G                  HT/PER
                 (UTC)          (F)     (DEG/KT/KT) (MB)    (MI)  (FT/S)
NY HARB ENTRANCE NOT AVBL
4S FIRE IS       0700               63                N/A           5/ 6
20S FIRE ISLAND  0700            63 63  240/ 14/ 16 1013.7          5/ 6
23SW MTP         0700                                 N/A           5/ 6
HUDSON CANYON    0700            65 66  220/ 14/ 16 1013.9          5/ 6
EXECUTION ROCKS  0700            58 63  180/  6/  8   N/A
WESTERN LI SOUND 0700            58     200/  6/  8   N/A           0
CENTRAL LI SOUND 0600            61 64  230/ 10/ 12   N/A           2/ 3
EASTERN LI SOUND 0600            62 64  220/ 12/ 16   N/A
ROBBINS REEF     0700            57     250/  3/  4 1012.2
$$


>>>>>>>>>>>>>>>>>>>>>>>>>>>> KEY <<<<<<<<<<<<<<<<<<<<<<<<<<<
>                                                          <
>     SKY/WX - SKY CONDITION/PRESENT WEATHER               <
>     TMP    - TEMPERATURE IN FAHRENHEIT                   <
>     DP     - DEWPOINT IN FAHRENHEIT                      <
>     RH     - RELATIVE HUMIDITY IN PERCENT                <
>     WIND   - DIRECTION AND SPEED IN MPH                  <
>     PRES   - MEAN SEA LEVEL PRESSURE IN INCHES OF HG     <
>     WCI    - WIND CHILL INDEX                            <
>     VSB    - VISIBILITY IN MILES                         <
>     HX     - HEAT INDEX                                  <
>     TC     - TEMPERATURE IN CELSIUS                      <
>     VRB    - VARIABLE WIND DIRECTION                     <
>                                                          <
>>>>>>>>>>>>>>>>>>>>>>>>>>>> KEY <<<<<<<<<<<<<<<<<<<<<<<<<<<





USA.gov is the U.S. government's official web portal to all federal, state and local government web resources and services.